Date,TemperatureHighF,TemperatureAvgF,TemperatureLowF,DewpointHighF,DewpointAvgF,DewpointLowF,HumidityHigh,HumidityAvg,HumidityLow,PressureMaxIn,PressureMinIn,WindSpeedMaxMPH,WindSpeedAvgMPH,GustSpeedMaxMPH,PrecipitationSumIn
2013-7-28,68.3,68.3,68.3,67.0,67.0,67.0,94,94,94,29.97,29.97,0,0,0,0.00
2013-7-29,82.0,74.9,68.1,73.0,69.7,66.0,96,84,69,30.00,29.93,2,0,6,0.26
2013-7-30,81.7,71.1,62.2,66.0,60.3,56.0,95,71,45,30.07,30.00,4,0,7,0.00
2013-7-31,83.1,71.4,62.7,65.0,60.9,54.0,90,71,45,30.11,30.00,2,0,4,0.00
2013-8-1,78.9,69.1,62.4,67.0,63.5,61.0,95,83,60,30.02,29.85,2,0,7,0.00
2013-8-2,82.7,71.5,63.9,68.0,63.7,60.0,97,78,48,29.85,29.77,5,0,9,0.21
2013-8-3,79.4,70.3,64.1,65.0,63.2,62.0,93,79,58,29.84,29.75,2,0,6,0.00
2013-8-4,80.2,68.8,60.4,62.0,58.1,55.0,89,70,44,29.86,29.74,4,0,6,0.00
2013-8-5,77.5,65.4,57.1,57.0,50.0,42.0,85,61,31,30.02,29.86,4,1,8,0.00
2013-8-6,83.6,65.6,52.2,58.0,53.7,50.0,94,68,37,30.12,30.02,3,0,5,0.00
2013-8-7,81.1,67.5,56.5,61.0,56.4,52.0,95,70,37,30.16,30.08,3,0,6,0.00
2013-8-8,80.9,70.8,64.4,72.0,66.8,58.0,96,87,74,30.09,29.98,3,0,5,0.06
2013-8-9,74.9,72.3,70.5,74.0,71.0,69.0,98,96,92,30.00,29.72,4,1,6,1.49
2013-8-10,82.8,73.7,65.5,72.0,62.2,54.0,98,70,39,29.98,29.76,4,1,9,0.00
2013-8-11,80.3,68.0,56.0,60.0,55.9,52.0,94,68,45,30.05,29.97,4,0,6,0.00
2013-8-12,82.8,70.2,60.0,63.0,59.9,55.0,94,72,44,30.00,29.89,3,0,6,0.00
2013-8-13,78.7,68.3,64.1,68.0,64.4,62.0,93,88,65,29.90,29.66,1,0,4,0.00
2013-8-14,74.6,66.3,60.3,64.0,55.6,51.0,95,70,49,29.94,29.64,5,1,9,0.00
2013-8-15,77.3,64.8,54.7,57.0,53.1,50.0,89,68,42,30.08,29.94,5,0,6,0.00
2013-8-16,79.8,65.6,54.5,58.0,55.1,52.0,93,72,43,30.16,30.08,4,0,6,0.00
2013-8-17,82.2,67.7,55.8,63.0,58.5,55.0,98,75,48,30.25,30.17,3,0,7,0.00
2013-8-18,80.4,67.7,58.0,65.0,60.2,57.0,97,79,49,30.24,30.06,2,0,3,0.00
2013-8-19,81.6,69.9,57.6,64.0,60.1,54.0,97,73,42,30.06,29.93,6,0,8,0.00
2013-8-20,87.2,74.5,62.5,65.0,62.1,58.0,94,68,38,30.06,29.95,4,0,6,0.00
2013-8-21,89.0,74.0,60.0,67.0,63.8,59.0,98,74,44,30.11,30.00,3,0,5,0.00
2013-8-22,85.5,73.8,62.8,74.0,67.9,62.0,97,83,59,30.01,29.80,3,0,6,0.00
2013-8-23,81.1,71.7,62.6,69.0,60.9,52.0,94,70,40,30.09,29.79,4,1,10,0.00
2013-8-24,78.7,64.4,52.1,52.0,49.6,45.0,91,63,32,30.31,30.10,6,0,10,0.00
2013-8-25,84.4,66.9,50.9,57.0,52.9,47.0,99,66,28,30.33,30.16,2,0,8,0.00
2013-8-26,80.4,70.9,63.8,67.0,62.4,57.0,86,75,60,30.16,29.84,5,0,9,0.00
2013-8-27,84.0,72.5,65.4,72.0,68.1,64.0,98,87,61,29.86,29.80,2,0,7,0.12
2013-8-28,86.7,71.1,61.9,70.0,65.0,61.0,99,83,52,29.94,29.82,4,0,6,0.00
2013-8-29,66.3,63.9,60.7,65.0,61.8,58.0,97,92,88,30.04,29.91,5,1,9,0.00
2013-8-30,85.0,70.3,61.1,68.0,63.9,58.0,93,81,56,30.00,29.80,3,0,6,0.00
2013-8-31,81.5,73.7,66.9,76.0,70.7,66.0,98,90,77,29.80,29.75,3,0,5,0.06
2013-9-1,78.8,71.6,68.4,77.0,71.0,68.0,99,98,92,29.85,29.77,3,0,5,4.07
2013-9-2,80.1,73.4,68.8,76.0,71.9,69.0,100,95,79,29.84,29.68,2,0,6,0.22
2013-9-3,79.6,72.4,64.2,73.0,68.2,59.0,99,87,72,29.78,29.66,2,0,8,0.00
2013-9-4,81.3,68.4,56.1,60.0,57.2,54.0,99,70,42,29.89,29.78,5,1,9,0.00
2013-9-5,71.4,62.2,51.1,62.0,55.1,44.0,95,79,43,30.11,29.83,6,0,7,0.05
2013-9-6,70.6,56.0,43.6,48.0,43.7,39.0,92,67,35,30.22,30.07,3,0,6,0.00
2013-9-7,79.7,62.6,46.9,57.0,50.8,45.0,92,69,33,30.07,29.83,3,0,7,0.00
2013-9-8,74.9,64.3,50.7,62.0,52.5,40.0,91,68,36,30.06,29.72,5,1,15,0.00
2013-9-9,70.7,56.2,42.5,51.0,45.5,41.0,96,70,41,30.21,30.06,2,0,4,0.00
2013-9-10,76.2,65.5,52.6,70.0,62.4,50.0,97,90,81,30.13,30.00,3,0,8,0.06
2013-9-11,95.2,79.6,68.1,78.0,72.2,67.0,99,81,48,30.04,29.91,4,0,8,0.00
2013-9-12,87.4,76.1,67.3,76.0,70.5,66.0,98,84,61,29.94,29.65,4,1,9,0.93
2013-9-13,80.6,68.7,59.6,69.0,64.5,54.0,99,87,63,29.72,29.53,5,0,13,0.11
2013-9-14,66.4,59.8,51.2,55.0,52.6,50.0,96,78,59,30.03,29.73,5,1,10,0.00
2013-9-15,72.3,58.2,47.1,53.0,49.8,46.0,98,77,41,30.14,30.03,2,0,6,0.00
2013-9-16,67.7,57.0,46.4,57.0,50.4,38.0,94,80,61,30.22,29.99,5,0,8,0.02
2013-9-17,64.7,50.2,37.9,46.0,39.8,36.0,95,71,41,30.39,30.23,4,0,8,0.00
2013-9-18,75.5,56.4,40.2,50.0,44.8,40.0,99,71,31,30.30,30.12,3,0,6,0.00
2013-9-19,82.6,61.5,44.4,56.0,51.3,44.0,98,74,37,30.12,30.00,2,0,3,0.00
2013-9-20,81.9,62.5,47.5,61.0,54.0,47.0,99,78,39,30.06,29.96,1,0,5,0.00
2013-9-21,76.1,64.4,54.8,66.0,60.6,54.0,99,88,63,30.00,29.70,5,1,7,0.00
2013-9-22,70.7,64.0,51.9,67.0,57.1,47.0,98,80,51,29.80,29.57,6,1,11,0.88
2013-9-23,65.0,52.8,46.0,47.0,42.3,39.0,84,69,46,29.98,29.80,7,1,14,0.00
2013-9-24,68.6,53.7,42.2,46.0,42.3,39.0,89,68,40,29.97,29.79,5,1,10,0.00
2013-9-25,69.3,54.6,44.4,53.0,47.7,44.0,97,79,54,29.95,29.85,4,0,9,0.00
2013-9-26,68.0,57.3,52.1,53.0,49.5,47.0,92,76,54,30.09,29.96,3,0,6,0.00
2013-9-27,66.2,57.1,50.0,56.0,52.1,49.0,98,84,66,30.23,30.10,4,0,7,0.00
2013-9-28,73.6,57.2,46.9,57.0,51.6,47.0,99,84,55,30.30,30.23,2,0,7,0.00
2013-9-29,70.0,53.6,45.5,55.0,48.2,44.0,99,85,39,30.24,30.10,2,0,5,0.00
2013-9-30,69.7,55.1,48.3,53.0,50.0,48.0,99,85,47,30.10,29.93,2,0,5,0.00
2013-10-1,78.3,59.4,45.4,57.0,51.6,45.0,99,79,38,29.93,29.82,4,0,9,0.00
2013-10-2,80.6,64.4,51.3,62.0,57.1,51.0,99,80,51,29.92,29.80,7,1,11,0.00
2013-10-3,77.7,63.1,52.0,57.0,51.4,45.0,97,70,32,30.05,29.93,3,0,6,0.00
2013-10-4,66.6,57.3,50.0,60.0,54.4,48.0,98,90,76,30.06,30.00,2,0,3,0.21
2013-10-5,69.4,61.4,56.7,62.0,58.1,56.0,99,89,72,30.09,30.02,2,0,5,0.00
2013-10-6,59.4,56.3,54.5,58.0,55.8,54.0,99,98,94,30.19,30.08,2,0,7,0.54
2013-10-7,76.9,65.1,55.9,71.0,62.9,54.0,100,93,78,30.09,29.79,9,1,10,0.32
2013-10-8,67.2,56.3,45.1,54.0,46.0,40.0,85,70,42,30.34,29.88,5,1,9,0.00
2013-10-9,62.2,49.5,40.4,48.0,43.1,39.0,97,81,50,30.44,30.34,10,0,10,0.00
2013-10-10,63.4,51.0,41.5,54.0,48.2,41.0,99,90,71,30.33,30.15,2,0,6,0.00
2013-10-11,71.6,56.3,47.6,58.0,51.0,47.0,98,84,57,30.15,30.06,5,0,6,0.00
2013-10-12,60.0,53.1,46.5,57.0,51.3,46.0,99,93,85,30.36,30.12,8,0,12,0.00
2013-10-13,59.4,50.7,41.7,50.0,46.7,41.0,99,87,66,30.41,30.34,3,0,7,0.00
2013-10-14,66.3,49.0,37.3,48.0,42.7,37.0,99,82,42,30.38,30.23,2,0,3,0.00
2013-10-15,67.7,55.3,46.3,55.0,50.2,46.0,99,84,60,30.24,30.15,2,0,5,0.00
2013-10-16,61.4,54.2,47.7,55.0,52.1,47.0,99,93,79,30.14,29.88,2,0,6,0.00
2013-10-17,74.3,60.2,50.0,62.0,56.7,50.0,99,89,62,29.89,29.70,3,0,8,0.02
2013-10-18,66.6,60.0,48.3,61.0,51.8,45.0,98,76,50,29.88,29.59,5,1,8,0.10
2013-10-19,66.0,53.5,41.2,48.0,44.3,39.0,94,73,45,29.94,29.72,3,0,6,0.00
2013-10-20,61.2,52.9,43.4,50.0,41.4,34.0,96,68,37,29.99,29.67,5,1,8,0.01
2013-10-21,66.2,51.9,39.1,45.0,40.5,37.0,90,68,41,30.09,29.98,2,0,6,0.00
2013-10-22,66.4,54.5,44.5,53.0,46.8,39.0,96,76,56,29.93,29.68,2,0,7,0.00
2013-10-23,50.0,45.2,37.8,39.0,36.3,33.0,92,72,52,29.77,29.56,1,0,5,0.00
2013-10-24,52.8,45.3,38.9,36.0,31.2,24.0,81,60,36,29.86,29.62,4,1,10,0.00
2013-10-25,48.0,40.9,33.9,35.0,30.4,28.0,89,68,46,30.13,29.86,4,1,8,0.00
2013-10-26,54.9,42.6,30.2,38.0,31.0,28.0,93,67,36,30.13,29.85,7,1,9,0.00
2013-10-27,54.2,47.4,40.8,39.0,35.0,30.0,88,64,44,30.03,29.78,5,1,8,0.00
2013-10-28,58.6,44.5,32.7,36.0,32.3,26.0,91,65,42,30.32,30.04,6,1,8,0.00
2013-10-29,48.7,37.7,29.9,31.0,26.1,21.0,89,65,34,30.42,30.32,3,0,5,0.00
2013-10-30,52.9,41.2,32.3,42.0,36.6,30.0,93,84,65,30.32,30.17,3,0,5,0.01
2013-10-31,61.9,49.4,36.2,59.0,47.6,35.0,97,93,84,30.21,29.77,5,1,9,0.04
2013-11-1,70.0,63.8,58.8,63.0,58.7,54.0,96,83,68,29.75,29.43,13,2,17,0.10
2013-11-2,67.8,55.9,47.4,54.0,46.4,41.0,95,73,40,29.70,29.56,5,0,6,0.00
2013-11-3,50.9,41.4,31.6,48.0,29.9,15.0,91,66,37,30.39,29.70,7,1,8,0.00
2013-11-4,42.3,33.0,27.1,25.0,19.1,15.0,88,59,33,30.68,30.39,5,1,6,0.00
2013-11-5,50.8,38.0,26.6,33.0,28.1,23.0,90,70,45,30.69,30.49,2,0,5,0.00
2013-11-6,61.6,50.0,38.2,50.0,42.0,33.0,90,75,52,30.49,30.02,5,1,10,0.00
2013-11-7,65.4,54.0,41.5,58.0,49.8,32.0,94,86,68,30.01,29.66,5,1,9,0.23
2013-11-8,48.9,39.6,32.1,35.0,27.9,23.0,80,64,50,30.07,29.79,5,1,14,0.00
2013-11-9,44.3,37.9,29.6,30.0,25.4,22.0,82,62,43,30.19,30.01,5,1,11,0.00
2013-11-10,56.0,45.7,40.1,44.0,36.7,30.0,94,72,53,30.00,29.71,6,1,17,0.03
2013-11-11,52.0,45.0,38.8,33.0,29.3,26.0,65,55,38,30.07,29.84,9,2,16,0.00
2013-11-12,48.0,35.4,27.0,39.0,25.5,16.0,91,68,54,30.16,29.86,6,1,12,0.09
2013-11-13,37.3,29.3,23.9,18.0,15.4,12.0,72,57,39,30.27,30.15,5,1,9,0.00
2013-11-14,51.3,39.2,27.9,26.0,21.4,17.0,66,51,35,30.14,30.02,5,1,10,0.00
2013-11-15,61.7,46.4,34.1,35.0,23.3,17.0,73,43,18,30.17,30.08,3,0,8,0.00
2013-11-16,60.9,46.3,37.0,34.0,29.6,23.0,81,56,24,30.29,30.16,0,0,3,0.00
2013-11-17,54.9,45.0,33.7,53.0,41.1,31.0,98,86,65,30.28,29.81,0,0,2,0.04
2013-11-18,65.9,58.7,48.0,62.0,48.0,33.0,99,70,42,29.80,29.50,6,2,13,0.18
2013-11-19,47.7,39.7,31.0,33.0,22.8,16.0,60,52,41,30.25,29.62,8,3,15,0.00
2013-11-20,41.7,32.1,24.9,19.0,15.3,12.0,79,52,31,30.60,30.25,7,2,10,0.00
2013-11-21,48.8,34.9,22.1,32.0,21.9,16.0,87,62,35,30.61,30.36,5,0,6,0.00
2013-11-22,46.5,43.6,40.1,46.0,41.3,33.0,97,91,74,30.34,29.79,1,0,3,0.15
2013-11-23,47.5,40.4,29.2,46.0,27.4,17.0,97,62,37,29.88,29.76,8,2,14,0.00
2013-11-24,29.0,23.0,19.0,20.0,3.8,-6.0,82,46,26,30.17,29.77,20,5,22,0.00
2013-11-25,33.8,24.2,15.5,17.0,3.4,-7.0,60,42,21,30.35,30.18,7,1,12,0.00
2013-11-26,40.0,35.5,30.1,38.0,22.8,16.0,97,62,44,30.30,30.01,4,1,10,0.11
2013-11-27,61.0,50.4,36.6,60.0,49.2,33.0,99,95,85,29.99,29.18,13,2,21,1.75
2013-11-28,36.7,29.9,23.3,32.0,15.8,7.0,85,57,37,30.40,29.44,12,3,18,0.00
2013-11-29,33.5,26.1,17.3,15.0,10.7,1.0,70,54,35,30.72,30.41,7,1,11,0.00
2013-11-30,33.1,23.4,13.4,21.0,13.5,7.0,80,67,49,30.77,30.41,2,0,7,0.00
2013-12-1,35.3,32.8,29.0,34.0,30.6,21.0,98,91,73,30.40,29.98,2,0,4,0.19
2013-12-2,38.4,36.1,34.7,38.0,35.6,34.0,98,98,97,29.98,29.89,2,0,5,0.01
2013-12-3,48.1,38.0,32.8,38.0,34.3,31.0,98,87,58,29.92,29.82,2,0,7,0.00
2013-12-4,44.1,35.0,29.0,31.0,28.5,26.0,96,79,52,30.17,29.92,2,0,7,0.01
2013-12-5,52.7,40.4,30.5,53.0,37.9,29.0,99,91,81,30.18,29.89,2,0,7,0.00
2013-12-6,56.1,48.5,33.3,55.0,45.8,32.0,99,90,72,30.10,29.83,6,1,6,0.33
2013-12-7,39.3,32.5,25.6,32.0,27.0,19.0,97,81,54,30.42,30.05,4,1,12,0.14
2013-12-8,30.0,27.3,21.6,19.0,16.1,14.0,76,63,53,30.57,30.43,3,0,5,0.00
2013-12-9,37.1,31.5,25.7,36.0,29.6,15.0,98,92,58,30.46,29.87,3,0,4,0.15
2013-12-10,33.5,30.4,24.2,33.0,28.3,18.0,97,92,73,29.98,29.76,5,1,8,0.00
2013-12-11,30.2,24.7,20.7,22.0,18.9,17.0,86,79,65,30.19,29.98,6,1,10,0.00
2013-12-12,25.6,20.2,11.7,18.0,8.8,3.0,87,63,41,30.25,30.05,6,1,9,0.00
2013-12-13,29.7,21.5,13.6,18.0,11.8,5.0,79,66,53,30.36,29.98,9,2,12,0.00
2013-12-14,28.2,14.4,9.6,27.0,5.9,-3.0,96,70,50,30.58,30.12,3,1,7,0.00
2013-12-15,33.5,27.6,21.9,33.0,25.5,20.0,97,92,84,30.09,29.40,6,1,10,0.00
2013-12-16,28.2,23.4,14.7,22.0,13.5,9.0,88,67,46,30.18,29.73,6,1,12,0.00
2013-12-17,18.2,12.3,3.2,17.0,8.3,0.0,93,84,68,30.26,29.93,2,0,4,0.00
2013-12-18,34.9,24.7,14.7,22.0,19.0,12.0,92,80,58,30.06,29.85,0,0,0,0.09
2013-12-19,43.3,33.6,23.7,27.0,24.1,20.0,84,69,51,30.09,29.93,6,1,9,0.30
2013-12-20,55.4,42.0,32.9,38.0,32.1,27.0,81,69,48,30.09,29.88,5,1,8,0.18
2013-12-21,58.1,49.0,41.5,49.0,43.3,35.0,91,81,70,29.93,29.83,4,1,7,0.00
2013-12-22,63.6,46.5,35.0,60.0,44.9,34.0,97,94,82,29.99,29.75,6,1,9,0.00
2013-12-23,37.0,33.8,32.1,37.0,33.3,31.0,98,97,97,30.06,29.96,2,0,5,0.72
2013-12-24,36.9,32.0,26.2,36.0,23.4,17.0,98,71,51,30.17,30.02,4,1,8,0.00
2013-12-25,26.0,18.9,14.2,14.0,5.9,2.0,72,57,43,30.52,30.18,10,1,11,0.00
2013-12-26,31.7,24.9,15.8,28.0,20.4,9.0,93,83,70,30.47,30.07,1,0,4,0.00
2013-12-27,34.5,27.7,22.5,22.0,20.4,19.0,92,75,57,30.25,30.17,5,1,10,0.00
2013-12-28,47.6,34.8,24.5,29.0,25.3,21.0,88,70,47,30.19,29.97,6,1,11,0.01
2013-12-29,41.4,36.3,30.7,38.0,32.2,25.0,97,85,72,30.01,29.38,4,1,11,1.23
2013-12-30,40.8,32.3,19.2,35.0,23.2,9.0,96,72,39,30.13,29.50,5,1,15,0.00
2013-12-31,26.7,19.1,13.2,15.0,7.2,-2.0,78,61,46,30.16,30.00,4,1,8,0.00
2014-1-1,28.3,21.9,16.7,12.0,8.6,6.0,70,57,44,30.35,30.16,6,1,9,0.00
2014-1-2,21.2,11.9,0.2,16.0,8.6,-3.0,89,86,66,30.33,29.82,6,1,10,0.00